[[{"header":{"parameterUnit":"m.s-1","parameterCategory":1,"la1":30.2991,"la2":30.254,"lo1":-89.0895,"lo2":-89.0444,"dx":0.0017,"dy":0.0017,"nx":28,"ny":28,"refTime":"2022-12-29T15:00:00:Z","depth":0,"parameterNumber":2,"parameterNumberName":"U-component_of_WINDS"},"data":[0,0,0,0,0,0,0,0,0,0,0,0,0,0,0,0,0,0,0,0,0,0,0,0,0,0,0,0,0,0,0,0,0,0,0,0,0,0,0,0,0,0,0,0,0,0,0,0,0,0,0,0,0,0,0,0,0,0,-1.7192,-1.7194,0,-1.7363,-1.7365,-1.7367,-1.7444,-1.7444,-1.7443,-1.7443,-1.7621,-1.7626,-1.7631,0,0,0,0,0,0,0,0,0,0,0,0,0,-1.6934,-1.6938,-1.7192,-1.7194,-1.7196,-1.7363,-1.7365,-1.7367,-1.7444,-1.7444,-1.7443,-1.7443,-1.762,-1.7625,-1.7631,0,0,0,0,0,0,0,0,0,0,0,0,0,-1.7069,-1.694,-1.7191,-1.7254,-1.7262,-1.7362,-1.7365,-1.7368,-1.7444,-1.7444,-1.7443,-1.7443,-1.7618,-1.7625,-1.7632,-1.7684,0,0,-1.7655,-1.7658,0,0,0,0,0,0,0,0,-1.7062,-1.7079,-1.7243,-1.725,-1.7258,-1.7382,-1.7339,-1.7474,-1.7444,-1.7375,-1.7443,-1.7443,-1.7542,-1.7556,-1.7588,-1.7692,-1.77,-1.7655,-1.766,-1.7663,-1.7665,0,0,0,0,0,0,0,-1.7052,-1.7072,-1.7259,-1.7245,-1.7255,-1.7275,-1.7294,-1.7365,-1.7458,-1.7381,-1.7387,-1.7406,-1.7546,-1.7581,-1.7593,-1.7702,-1.7655,-1.7662,-1.7666,-1.7669,-1.7858,-1.7859,0,0,0,0,0,0,-1.7032,-1.7064,-1.7254,-1.7265,-1.7157,-1.728,-1.7301,-1.7342,-1.7457,-1.7475,-1.7406,-1.7409,-1.7569,-1.7584,-1.76,-1.7668,-1.7663,-1.767,-1.7674,-1.7858,-1.7858,-1.7859,0,0,0,0,0,0,-1.7026,-1.7048,-1.7247,-1.7166,-1.7193,-1.7284,-1.7331,-1.7346,-1.7381,-1.7476,-1.7494,-1.7424,-1.7569,-1.7589,-1.7662,-1.7676,-1.7673,-1.768,-1.7857,-1.7858,-1.7859,-1.7805,0,0,0,0,0,0,-1.7019,-1.7046,-1.7066,-1.7166,-1.7197,-1.7306,-1.7331,-1.735,-1.7393,-1.7399,-1.7498,-1.7515,-1.757,-1.7651,-1.767,-1.7686,-1.7686,-1.7856,-1.7857,-1.7858,-1.7806,-1.7804,-1.7802,0,0,0,0,0,-1.7009,-1.7044,-1.7066,-1.7089,-1.7223,-1.7306,-1.7324,-1.7387,-1.7394,-1.7415,-1.7477,-1.7511,-1.7671,-1.7658,-1.768,-1.7698,-1.7856,-1.7857,-1.7858,-1.7807,-1.7805,-1.7802,0,0,0,0,0,0,-1.6944,-1.7058,-1.7084,-1.7152,-1.7219,-1.7319,-1.7348,-1.7382,-1.7449,-1.7451,-1.7527,-1.7549,-1.7615,-1.7664,-1.7647,-1.7755,-1.7767,-1.7772,-1.772,-1.7719,-1.7717,-1.7704,-1.7692,0,0,0,0,0,-1.6937,-1.6995,-1.7092,-1.7143,-1.7175,-1.7255,-1.7294,-1.7336,-1.7409,-1.7437,-1.7504,-1.7574,-1.764,-1.7682,-1.7748,-1.7814,-1.7837,-1.7837,-1.7835,-1.7833,-1.7837,-1.7877,-1.7878,-1.7863,-1.7863,-1.7863,0,0,-1.6925,-1.6994,-1.7026,-1.7131,-1.7188,-1.7246,-1.7278,-1.7339,-1.7383,-1.7447,-1.752,-1.7571,-1.7654,-1.7724,-1.7758,-1.7767,-1.7847,-1.7835,-1.7833,-1.7838,-1.7878,-1.788,-1.7881,-1.7864,-1.7864,-1.7864,0,0,-1.6932,-1.699,-1.7039,-1.7095,-1.718,-1.7233,-1.7244,-1.734,-1.7376,-1.745,-1.75,-1.7554,-1.7666,-1.7723,-1.7767,-1.7796,-1.7831,-1.7815,-1.7806,-1.7843,-1.7844,-1.7845,-1.7856,-1.7859,-1.7819,-1.7819,-1.7819,0,-1.6905,-1.6994,-1.706,-1.7117,-1.7163,-1.7222,-1.7273,-1.7325,-1.7427,-1.7457,-1.7465,-1.7607,-1.7668,-1.7752,-1.7759,-1.7792,-1.7808,-1.7804,-1.7838,-1.7841,-1.7843,-1.7854,-1.7858,-1.7817,-1.7817,-1.7817,-1.7817,0,-1.6958,-1.7019,-1.7049,-1.7145,-1.7194,-1.7248,-1.7322,-1.7364,-1.7402,-1.7455,-1.753,-1.7604,-1.7687,-1.771,-1.7748,-1.78,-1.7803,-1.7823,-1.7837,-1.7841,-1.7853,-1.7857,-1.7813,-1.7814,-1.7815,-1.7815,0,0,-1.6929,-1.7061,-1.7071,-1.7115,-1.7214,-1.7263,-1.7319,-1.7399,-1.7434,-1.7503,-1.7553,-1.7646,-1.7666,-1.7716,-1.7761,-1.7794,-1.7813,-1.7811,-1.7815,-1.7809,-1.7876,-1.7859,-1.7863,-1.7837,-1.7838,-1.7839,-1.7869,0,-1.695,-1.7053,-1.7114,-1.7193,-1.7251,-1.7308,-1.7358,-1.7424,-1.7475,-1.7533,-1.759,-1.7655,-1.7676,-1.7706,-1.7741,-1.7803,-1.7827,-1.7802,-1.7885,-1.7887,-1.7863,-1.7869,-1.7853,-1.7877,-1.7874,-1.7875,-1.7875,0,-1.6987,-1.7054,-1.7138,-1.7231,-1.7257,-1.7301,-1.7379,-1.7432,-1.7509,-1.7544,-1.7599,-1.7645,-1.7709,-1.7717,-1.7806,-1.7787,-1.7826,-1.7861,-1.7864,-1.7874,-1.7881,-1.788,-1.7887,-1.789,-1.7883,-1.7882,-1.7882,0,-1.6958,-1.7069,-1.7134,-1.7171,-1.728,-1.7309,-1.7356,-1.7432,-1.7476,-1.7545,-1.7575,-1.765,-1.7692,-1.775,-1.7815,-1.7815,-1.7898,-1.7912,-1.793,-1.7928,-1.7945,-1.7943,-1.7958,-1.7969,-1.7969,-1.7969,-1.7968,0,-1.6975,-1.7024,-1.7122,-1.7162,-1.722,-1.729,-1.7345,-1.7397,-1.7464,-1.7516,-1.7571,-1.7619,-1.7702,-1.7761,-1.7813,-1.7879,-1.7898,-1.7928,-1.7942,-1.7924,-1.792,-1.795,-1.795,-1.797,-1.7969,-1.7969,-1.7969,0,-1.6952,-1.7019,-1.7094,-1.7191,-1.7216,-1.7255,-1.7338,-1.738,-1.7434,-1.7499,-1.7518,-1.7603,-1.7675,-1.7746,-1.7842,-1.7877,-1.7943,-1.7961,-1.7917,-1.7924,-1.7939,-1.7936,-1.7973,-1.7982,-1.7986,-1.7986,-1.7986,0,-1.6958,-1.6998,-1.7098,-1.7137,-1.7182,-1.7243,-1.7288,-1.7359,-1.7404,-1.7494,-1.7525,-1.7601,-1.7665,-1.7777,-1.7848,-1.7923,-1.7943,-1.7951,-1.7955,-1.7936,-1.7944,-1.7941,-1.7946,-1.7949,-1.7948,-1.7948,-1.7948,0,-1.6963,-1.6994,-1.7056,-1.7131,-1.7183,-1.7245,-1.7309,-1.7337,-1.742,-1.7468,-1.7542,-1.7591,-1.769,-1.7765,-1.7848,-1.7898,-1.7937,-1.7946,-1.7954,-1.7936,-1.7909,-1.7925,-1.7912,-1.7945,-1.7945,-1.7945,-1.7946,-1.7946,-1.6955,-1.6993,-1.707,-1.7138,-1.7193,-1.7252,-1.7296,-1.7355,-1.7417,-1.7501,-1.754,-1.7614,-1.7691,-1.7806,-1.7855,-1.7915,-1.7925,-1.7937,-1.794,-1.7942,-1.7938,-1.7899,-1.7931,-1.7931,-1.7931,-1.7931,-1.7932,0,-1.6963,-1.7015,-1.7077,-1.7164,-1.7218,-1.7249,-1.7321,-1.7365,-1.7429,-1.7496,-1.7558,-1.7643,-1.7716,-1.7793,-1.787,-1.7904,-1.7924,-1.7922,-1.792,-1.7932,-1.7925,-1.791,-1.7904,-1.7904,-1.7904,-1.7904,-1.7904,-1.7904,-1.6973,-1.7039,-1.7079,-1.7174,-1.7226,-1.7298,-1.7337,-1.7392,-1.7446,-1.7538,-1.7598,-1.7647,-1.772,-1.7803,-1.7872,-1.7893,-1.7919,-1.7912,-1.7938,-1.793,-1.7932,-1.7934,-1.792,-1.7917,-1.7917,-1.794,-1.794,-1.794]},{"header":{"parameterUnit":"m.s-1","parameterCategory":1,"la1":30.2991,"la2":30.254,"lo1":-89.0895,"lo2":-89.0444,"dx":0.0017,"dy":0.0017,"nx":28,"ny":28,"refTime":"2022-12-29T15:00:00:Z","depth":0,"parameterNumber":3,"parameterNumberName":"V-component_of_WINDS"},"data":[0,0,0,0,0,0,0,0,0,0,0,0,0,0,0,0,0,0,0,0,0,0,0,0,0,0,0,0,0,0,0,0,0,0,0,0,0,0,0,0,0,0,0,0,0,0,0,0,0,0,0,0,0,0,0,0,0,0,3.7317,3.7318,0,3.7365,3.7365,3.7366,3.738,3.738,3.738,3.738,3.7428,3.743,3.7431,0,0,0,0,0,0,0,0,0,0,0,0,0,3.7242,3.7243,3.7317,3.7318,3.7318,3.7364,3.7365,3.7366,3.738,3.738,3.738,3.7379,3.7428,3.743,3.7432,0,0,0,0,0,0,0,0,0,0,0,0,0,3.728,3.7243,3.7317,3.7331,3.7333,3.7364,3.7365,3.7366,3.738,3.738,3.738,3.7379,3.7427,3.743,3.7432,3.7453,0,0,3.7439,3.744,0,0,0,0,0,0,0,0,3.7278,3.7283,3.7328,3.733,3.7332,3.7366,3.7356,3.7395,3.738,3.7362,3.738,3.7379,3.7408,3.7412,3.7422,3.7455,3.7457,3.7439,3.744,3.7441,3.7442,0,0,0,0,0,0,0,3.7275,3.7281,3.7336,3.7329,3.7331,3.7336,3.7341,3.7364,3.7387,3.7364,3.7365,3.737,3.7409,3.7419,3.7423,3.7458,3.7439,3.7441,3.7442,3.7443,3.7515,3.7515,0,0,0,0,0,0,3.727,3.7279,3.7334,3.7337,3.7304,3.7338,3.7343,3.7356,3.7386,3.7391,3.7371,3.7371,3.7416,3.742,3.7425,3.7454,3.7441,3.7443,3.7445,3.7514,3.7515,3.7515,0,0,0,0,0,0,3.7268,3.7275,3.7332,3.7308,3.7316,3.7339,3.7353,3.7357,3.7367,3.7391,3.7396,3.7377,3.7415,3.7421,3.7446,3.7455,3.7444,3.7447,3.7514,3.7514,3.7515,3.751,0,0,0,0,0,0,3.7266,3.7274,3.7282,3.7308,3.7317,3.7353,3.7353,3.7358,3.7371,3.7372,3.7398,3.7403,3.7416,3.7443,3.7449,3.7458,3.7448,3.7513,3.7514,3.7515,3.751,3.7511,3.7511,0,0,0,0,0,3.7263,3.7278,3.7282,3.7288,3.7327,3.7353,3.7358,3.7373,3.7371,3.738,3.7396,3.7402,3.7453,3.7445,3.7452,3.7462,3.7512,3.7514,3.7515,3.7509,3.751,3.7511,0,0,0,0,0,0,3.725,3.7281,3.7286,3.7309,3.7329,3.7356,3.7366,3.7373,3.7393,3.7393,3.7411,3.7417,3.7441,3.7454,3.7445,3.7486,3.7483,3.7486,3.7477,3.7478,3.7479,3.7476,3.745,0,0,0,0,0,3.725,3.7269,3.7295,3.7313,3.7322,3.7343,3.7354,3.7364,3.7385,3.7393,3.7411,3.7431,3.7453,3.7466,3.7486,3.7511,3.7519,3.7522,3.7523,3.7524,3.7526,3.7543,3.7546,3.7519,3.7519,3.7519,0,0,3.725,3.7269,3.7279,3.7311,3.7327,3.7346,3.7349,3.7369,3.7384,3.7396,3.7422,3.7436,3.746,3.7486,3.7498,3.7497,3.7535,3.7525,3.7526,3.7528,3.7545,3.7547,3.7549,3.752,3.752,3.752,0,0,3.726,3.7276,3.7294,3.731,3.7335,3.7349,3.7354,3.738,3.739,3.7416,3.7426,3.7445,3.748,3.7498,3.7511,3.7531,3.7538,3.7537,3.7543,3.7559,3.7561,3.7563,3.7573,3.7576,3.7539,3.7539,3.7539,0,3.7257,3.7286,3.7302,3.7322,3.7337,3.7349,3.7369,3.7384,3.7414,3.7425,3.7423,3.747,3.7487,3.7518,3.7524,3.7533,3.7541,3.7534,3.756,3.7562,3.7564,3.7573,3.7576,3.7539,3.7539,3.7539,3.7539,0,3.7282,3.7303,3.7314,3.7344,3.736,3.738,3.74,3.7414,3.7423,3.7438,3.7466,3.7487,3.7513,3.7521,3.753,3.7555,3.7554,3.7556,3.7554,3.7566,3.7575,3.7579,3.7539,3.7539,3.7539,3.7539,0,0,3.7283,3.7324,3.7328,3.7343,3.7373,3.739,3.7411,3.7437,3.745,3.7471,3.7491,3.7522,3.7525,3.754,3.7551,3.7566,3.7584,3.7566,3.7567,3.757,3.7616,3.7615,3.7619,3.7588,3.7589,3.7589,3.7615,0,3.7298,3.7337,3.7353,3.7385,3.7406,3.7419,3.7439,3.746,3.7475,3.7495,3.7512,3.7534,3.7535,3.7545,3.756,3.7578,3.7593,3.7576,3.7608,3.7609,3.7603,3.7623,3.7622,3.7645,3.7618,3.7619,3.7619,0,3.732,3.7343,3.7377,3.7407,3.7416,3.7433,3.746,3.7479,3.7504,3.7515,3.7533,3.7544,3.7569,3.7565,3.7601,3.7589,3.7604,3.7615,3.7616,3.762,3.7615,3.763,3.7652,3.7656,3.7624,3.7624,3.7623,0,3.732,3.7359,3.7385,3.7398,3.7433,3.7445,3.746,3.7485,3.7501,3.7525,3.7536,3.7562,3.7577,3.7598,3.7616,3.7611,3.7651,3.7648,3.7662,3.7662,3.767,3.7669,3.7696,3.7677,3.7677,3.7677,3.7677,0,3.7336,3.7356,3.7386,3.7402,3.7427,3.7446,3.747,3.7487,3.751,3.753,3.7544,3.7563,3.7586,3.7609,3.7623,3.7652,3.7658,3.7668,3.7672,3.7668,3.7667,3.7678,3.7678,3.7678,3.7677,3.7677,3.7677,0,3.734,3.736,3.739,3.7422,3.7431,3.7448,3.7475,3.7493,3.7509,3.7536,3.7543,3.7569,3.7597,3.7618,3.7653,3.7663,3.7695,3.7698,3.7687,3.7689,3.7702,3.7702,3.7738,3.7745,3.772,3.772,3.772,0,3.7348,3.7365,3.74,3.7415,3.743,3.7454,3.7471,3.7492,3.7509,3.7541,3.7555,3.7584,3.7608,3.7653,3.7676,3.7704,3.7709,3.772,3.7713,3.7709,3.7711,3.7711,3.7714,3.7721,3.7721,3.7721,3.7721,0,3.7363,3.7373,3.7397,3.7425,3.7446,3.7469,3.7492,3.7504,3.7529,3.7549,3.7578,3.7597,3.7635,3.7664,3.7695,3.7712,3.7722,3.7724,3.7729,3.7725,3.7718,3.7724,3.7691,3.7723,3.7722,3.7722,3.7722,3.7722,3.737,3.7387,3.7415,3.7442,3.7462,3.7485,3.7504,3.7524,3.7548,3.7581,3.7592,3.7623,3.7651,3.7694,3.7712,3.7737,3.7737,3.7744,3.7746,3.7748,3.7749,3.7714,3.7743,3.7743,3.7743,3.7743,3.7743,0,3.7387,3.7406,3.7431,3.7465,3.7487,3.7495,3.7522,3.754,3.7567,3.7593,3.7617,3.7653,3.7682,3.7708,3.774,3.7755,3.7761,3.7763,3.7762,3.7767,3.7746,3.7739,3.7758,3.7758,3.7758,3.7758,3.7758,3.7758,3.7398,3.7428,3.7442,3.7483,3.7502,3.7533,3.7548,3.757,3.7591,3.763,3.7655,3.7672,3.7699,3.7733,3.7761,3.7768,3.778,3.7781,3.779,3.777,3.7768,3.7766,3.776,3.7783,3.7783,3.7809,3.7809,3.781]}]]